Flag for U.S.A. Weather past 2 weeks in Bozeman, Montana, U.S.A.

Now
47 °F

Clear.


Feels Like: 43 °F
Forecast: 43 / 77 °F
Wind: 7 mph from South

Location: Gallatin Field

Current Time: Jul 25, 2014 at 3:58:11 AM

Latest Report: Jul 25, 2014 at 2:56 AM


Visibility: 10 mi

Pressure: 30.00 "Hg

Humidity: 71%

Dew point: 38 °F

Location of BozemanLocation

Historic Weather in Bozeman — Graph

°F

Bozeman temperature yesterday

Maximum temperature yesterday: 82 °F (at 1:56 PM)
Minimum temperature yesterday: 52 °F (at 10:56 PM)
Average temperature yesterday: 67 °F

Past Weeks' High & Low Weather Summary

 TemperatureHumidityPressure
High91 °F (Jul 20, 3:56 PM)100% (Jul 16, 6:56 AM)30.20 "Hg (Jul 16, 6:56 AM)
Low44 °F (Jul 25, 1:56 AM)8% (Jul 20, 3:56 PM)29.66 "Hg (Jul 20, 7:56 PM)
Average69 °F53%29.93 "Hg
* Reported Jul 10 2:56 AM — Jul 25 2:56 AM, Bozeman, Weather by CustomWeather, © 2014

Note: Actual official high and low records may vary slightly from our data, if they occured in-between our weather recording intervals... More about our weather records

Advertising

Bozeman weather history for previous 24 hours

 ConditionsComfort  
Time TempWeatherWind HumidityBarometerVisibility
2:56 AM
Jul 25
47 °FClear.7 mph71%30.00 "Hg10 mi
1:56 AM44 °FClear.6 mph79%30.00 "Hg10 mi
12:56 AM53 °FClear.5 mph52%29.99 "Hg10 mi
11:56 PM
Jul 24
54 °FClear.7 mph43%29.98 "Hg10 mi
10:56 PM52 °FClear.10 mph53%29.96 "Hg10 mi
9:56 PM59 °FSunny.7 mph42%29.93 "Hg10 mi
8:56 PM69 °FSunny.No wind31%29.87 "Hg10 mi
7:56 PM71 °FSunny.7 mph28%29.87 "Hg10 mi
6:56 PM74 °FSunny.12 mph29%29.87 "Hg10 mi
5:56 PM76 °FSunny.10 mph30%29.88 "Hg10 mi
4:56 PM77 °FSunny.13 mph29%29.86 "Hg10 mi
3:56 PM77 °FSunny.14 mph35%29.84 "Hg10 mi
2:56 PM76 °FPassing clouds.14 mph40%29.83 "Hg10 mi
1:56 PM82 °FSunny.17 mph27%29.81 "Hg10 mi
12:56 PM79 °FSunny.15 mph35%29.80 "Hg10 mi
11:56 AM76 °FSunny.9 mph40%29.81 "Hg10 mi
10:56 AM74 °FSunny.No wind40%29.82 "Hg10 mi
9:56 AM70 °FSunny.3 mph47%29.85 "Hg10 mi
8:56 AM68 °FSunny.No wind55%29.85 "Hg10 mi
7:56 AM62 °FSunny.6 mph65%29.83 "Hg10 mi
6:56 AM58 °FClear.5 mph67%29.81 "Hg10 mi
5:56 AM54 °FClear.5 mph77%29.81 "Hg10 mi
4:56 AM58 °FClear.6 mph62%29.80 "Hg10 mi
3:56 AM60 °FPassing clouds.9 mph62%29.79 "Hg10 mi
Weather by CustomWeather, © 2014

See weather overviewHow to use our weather pages